| time (UTC) | temp C | wind direction | speed KPH | gust KPH | rain 1hr cm | rain 24hr cm | rain mn cm | humidity % | barometer mb |
| 20260509000639 | 17 | 282 | 1.6 | 8.0 | 0.00 | 0.00 | 0.00 | 37 | 1005.4 |
| 20260509000142 | 17 | 270 | 1.6 | 9.7 | 0.00 | 0.00 | 0.00 | 37 | 1005.5 |
| 20260508235644 | 17 | 293 | 0.0 | 6.4 | 0.00 | 0.00 | 0.00 | 38 | 1005.4 |
| 20260508235141 | 18 | 299 | 1.6 | 4.8 | 0.00 | 0.00 | 0.00 | 38 | 1005.4 |
| 20260508234645 | 17 | 137 | 0.0 | 8.0 | 0.00 | 0.00 | 0.00 | 39 | 1005.4 |
| 20260508234139 | 17 | 244 | 0.0 | 9.7 | 0.00 | 0.00 | 0.00 | 38 | 1005.4 |
| 20260508233642 | 18 | 308 | 1.6 | 9.7 | 0.00 | 0.00 | 0.00 | 35 | 1005.4 |
| 20260508233145 | 17 | 207 | 1.6 | 9.7 | 0.00 | 0.00 | 0.00 | 35 | 1005.4 |
| 20260508232649 | 17 | 298 | 1.6 | 8.0 | 0.00 | 0.00 | 0.00 | 35 | 1005.4 |
| 20260508232150 | 17 | 271 | 3.2 | 11.3 | 0.00 | 0.00 | 0.00 | 35 | 1005.4 |
| 20260508231634 | 17 | 278 | 4.8 | 14.5 | 0.00 | 0.00 | 0.00 | 34 | 1005.4 |
| 20260508231131 | 17 | 13 | 3.2 | 8.0 | 0.00 | 0.00 | 0.00 | 35 | 1005.5 |
| 20260508230635 | 17 | 283 | 4.8 | 8.0 | 0.00 | 0.00 | 0.00 | 33 | 1005.4 |
| 20260508230138 | 17 | 217 | 3.2 | 17.7 | 0.00 | 0.00 | 0.00 | 35 | 1005.4 |
| 20260508225707 | 17 | 248 | 6.4 | 17.7 | 0.00 | 0.00 | 0.00 | 34 | 1005.5 |
| 20260508225212 | 18 | 311 | 6.4 | 14.5 | 0.00 | 0.00 | 0.00 | 33 | 1005.5 |
| 20260508224633 | 18 | 203 | 4.8 | 12.9 | 0.00 | 0.00 | 0.00 | 34 | 1005.4 |
| 20260508224152 | 18 | 246 | 3.2 | 12.9 | 0.00 | 0.00 | 0.00 | 34 | 1005.4 |
| 20260508223634 | 18 | 262 | 3.2 | 9.7 | 0.00 | 0.00 | 0.00 | 35 | 1005.5 |
| 20260508223201 | 17 | 263 | 3.2 | 17.7 | 0.00 | 0.00 | 0.00 | 35 | 1005.6 |
| 20260508222647 | 17 | 219 | 9.7 | 17.7 | 0.00 | 0.00 | 0.00 | 34 | 1005.6 |
| 20260508222142 | 18 | 240 | 3.2 | 9.7 | 0.00 | 0.00 | 0.00 | 35 | 1005.6 |
| 20260508221646 | 18 | 271 | 4.8 | 12.9 | 0.00 | 0.00 | 0.00 | 34 | 1005.6 |
| 20260508221145 | 18 | 250 | 6.4 | 12.9 | 0.00 | 0.00 | 0.00 | 35 | 1005.7 |
| 20260508220648 | 18 | 270 | 0.0 | 12.9 | 0.00 | 0.00 | 0.00 | 35 | 1005.7 |
| 20260508220132 | 17 | 278 | 6.4 | 12.9 | 0.00 | 0.00 | 0.00 | 34 | 1005.7 |
| 20260508215635 | 18 | 274 | 1.6 | 8.0 | 0.00 | 0.00 | 0.00 | 37 | 1005.7 |
| 20260508215201 | 18 | 277 | 3.2 | 9.7 | 0.00 | 0.00 | 0.00 | 35 | 1005.8 |
| 20260508214644 | 18 | 215 | 3.2 | 9.7 | 0.00 | 0.00 | 0.00 | 36 | 1005.9 |
| 20260508214141 | 17 | 194 | 1.6 | 12.9 | 0.00 | 0.00 | 0.00 | 36 | 1005.9 |
| 20260508213642 | 17 | 214 | 6.4 | 19.3 | 0.00 | 0.00 | 0.00 | 35 | 1005.9 |
| 20260508213146 | 17 | 290 | 8.0 | 19.3 | 0.00 | 0.00 | 0.00 | 33 | 1005.9 |
| 20260508212647 | 18 | 292 | 8.0 | 17.7 | 0.00 | 0.00 | 0.00 | 32 | 1005.9 |
| 20260508212150 | 18 | 300 | 1.6 | 12.9 | 0.00 | 0.00 | 0.00 | 33 | 1005.8 |
| 20260508211635 | 17 | 217 | 3.2 | 19.3 | 0.00 | 0.00 | 0.00 | 33 | 1005.9 |
| 20260508211135 | 17 | 261 | 8.0 | 19.3 | 0.00 | 0.00 | 0.00 | 32 | 1006.0 |
| 20260508210640 | 18 | 330 | 4.8 | 17.7 | 0.00 | 0.00 | 0.00 | 31 | 1006.0 |
| 20260508210143 | 17 | 224 | 6.4 | 17.7 | 0.00 | 0.00 | 0.00 | 33 | 1006.1 |
| 20260508205647 | 17 | 237 | 3.2 | 22.5 | 0.00 | 0.00 | 0.00 | 33 | 1006.1 |
| 20260508205143 | 17 | 231 | 11.3 | 22.5 | 0.00 | 0.00 | 0.00 | 32 | 1006.0 |
| 20260508204711 | 17 | 295 | 6.4 | 19.3 | 0.00 | 0.00 | 0.00 | 32 | 1006.2 |
| 20260508203643 | 18 | 271 | 8.0 | 20.9 | 0.00 | 0.00 | 0.00 | 31 | 1006.2 |
| 20260508203148 | 17 | 211 | 4.8 | 16.1 | 0.00 | 0.00 | 0.00 | 34 | 1006.2 |
| 20260508202631 | 18 | 254 | 9.7 | 16.1 | 0.00 | 0.00 | 0.00 | 32 | 1006.4 |
| 20260508202151 | 18 | 253 | 1.6 | 8.0 | 0.00 | 0.00 | 0.00 | 34 | 1006.4 |
| 20260508201653 | 18 | 194 | 3.2 | 11.3 | 0.00 | 0.00 | 0.00 | 33 | 1006.6 |
| 20260508201132 | 18 | 217 | 3.2 | 11.3 | 0.00 | 0.00 | 0.00 | 36 | 1006.7 |
| 20260508200635 | 17 | 275 | 1.6 | 14.5 | 0.00 | 0.00 | 0.00 | 33 | 1006.8 |
| 20260508200140 | 17 | 248 | 3.2 | 14.5 | 0.00 | 0.00 | 0.00 | 34 | 1006.8 |
| 20260508195641 | 17 | 260 | 6.4 | 14.5 | 0.00 | 0.00 | 0.00 | 34 | 1006.9 |
| 20260508195206 | 17 | 249 | 6.4 | 16.1 | 0.00 | 0.00 | 0.00 | 34 | 1006.9 |
| 20260508194650 | 17 | 307 | 4.8 | 16.1 | 0.00 | 0.00 | 0.00 | 34 | 1006.9 |
| 20260508194148 | 17 | 248 | 1.6 | 9.7 | 0.00 | 0.00 | 0.00 | 36 | 1007.1 |
| 20260508193650 | 17 | 220 | 3.2 | 9.7 | 0.00 | 0.00 | 0.00 | 34 | 1007.3 |
| 20260508193132 | 17 | 297 | 3.2 | 22.5 | 0.00 | 0.00 | 0.00 | 35 | 1007.3 |
| 20260508192634 | 17 | 98 | 6.4 | 22.5 | 0.00 | 0.00 | 0.00 | 36 | 1007.4 |
| 20260508192200 | 16 | 252 | 1.6 | 12.9 | 0.00 | 0.00 | 0.00 | 36 | 1007.5 |
| 20260508191643 | 16 | 217 | 4.8 | 16.1 | 0.00 | 0.00 | 0.00 | 36 | 1007.7 |
| 20260508191208 | 17 | 311 | 3.2 | 12.9 | 0.00 | 0.00 | 0.00 | 36 | 1007.6 |
| 20260508190649 | 17 | 301 | 3.2 | 14.5 | 0.00 | 0.00 | 0.00 | 36 | 1007.7 |
| 20260508190149 | 16 | 293 | 6.4 | 14.5 | 0.00 | 0.00 | 0.00 | 34 | 1007.8 |
| 20260508185631 | 17 | 290 | 8.0 | 14.5 | 0.00 | 0.00 | 0.00 | 33 | 1007.8 |
| 20260508185131 | 17 | 245 | 3.2 | 12.9 | 0.00 | 0.00 | 0.00 | 36 | 1007.8 |
| 20260508184637 | 17 | 317 | 3.2 | 16.1 | 0.00 | 0.00 | 0.00 | 32 | 1008.0 |
| 20260508184138 | 17 | 216 | 3.2 | 16.1 | 0.00 | 0.00 | 0.00 | 36 | 1008.1 |
| 20260508183642 | 17 | 301 | 3.2 | 9.7 | 0.00 | 0.00 | 0.00 | 33 | 1008.1 |
| 20260508183145 | 17 | 284 | 4.8 | 8.0 | 0.00 | 0.00 | 0.00 | 35 | 1008.1 |
| 20260508182648 | 17 | 233 | 1.6 | 4.8 | 0.00 | 0.00 | 0.00 | 34 | 1008.0 |
| 20260508182148 | 17 | 316 | 1.6 | 9.7 | 0.00 | 0.00 | 0.00 | 36 | 1008.1 |
| 20260508181631 | 16 | 304 | 3.2 | 12.9 | 0.00 | 0.00 | 0.00 | 40 | 1008.2 |
| 20260508181147 | 16 | 311 | 6.4 | 12.9 | 0.00 | 0.00 | 0.00 | 35 | 1008.2 |
| 20260508180631 | 16 | 274 | 1.6 | 8.0 | 0.00 | 0.00 | 0.00 | 36 | 1008.2 |
| 20260508180135 | 16 | 252 | 1.6 | 11.3 | 0.00 | 0.00 | 0.00 | 36 | 1008.4 |
| 20260508175638 | 16 | 305 | 6.4 | 11.3 | 0.00 | 0.00 | 0.00 | 35 | 1008.6 |
| 20260508175157 | 16 | 232 | 3.2 | 11.3 | 0.00 | 0.00 | 0.00 | 36 | 1008.5 |
| 20260508174638 | 16 | 309 | 1.6 | 8.0 | 0.00 | 0.00 | 0.00 | 35 | 1008.7 |
| 20260508174203 | 16 | 169 | 0.0 | 8.0 | 0.00 | 0.00 | 0.00 | 36 | 1008.9 |
| 20260508173644 | 15 | 229 | 3.2 | 11.3 | 0.00 | 0.00 | 0.00 | 36 | 1008.9 |
| 20260508173144 | 15 | 315 | 3.2 | 12.9 | 0.00 | 0.00 | 0.00 | 35 | 1009.0 |
| 20260508172645 | 15 | 167 | 3.2 | 12.9 | 0.00 | 0.00 | 0.00 | 37 | 1009.1 |
| 20260508172209 | 15 | 278 | 3.2 | 6.4 | 0.00 | 0.00 | 0.00 | 37 | 1009.0 |
| 20260508171632 | 15 | 153 | 1.6 | 8.0 | 0.00 | 0.00 | 0.00 | 39 | 1009.3 |
| 20260508171148 | 15 | 141 | 1.6 | 8.0 | 0.00 | 0.00 | 0.00 | 36 | 1009.3 |
| 20260508170651 | 15 | 311 | 4.8 | 8.0 | 0.00 | 0.00 | 0.00 | 36 | 1009.4 |
| 20260508170132 | 15 | 359 | 1.6 | 11.3 | 0.00 | 0.00 | 0.00 | 39 | 1009.5 |
| 20260508165635 | 14 | 277 | 3.2 | 14.5 | 0.00 | 0.00 | 0.00 | 38 | 1009.5 |
| 20260508165134 | 14 | 291 | 3.2 | 16.1 | 0.00 | 0.00 | 0.00 | 37 | 1009.6 |
| 20260508164703 | 14 | 280 | 8.0 | 16.1 | 0.00 | 0.00 | 0.00 | 36 | 1009.7 |
| 20260508164207 | 14 | 282 | 1.6 | 11.3 | 0.00 | 0.00 | 0.00 | 39 | 1009.7 |
| 20260508163648 | 13 | 282 | 1.6 | 9.7 | 0.00 | 0.00 | 0.00 | 38 | 1009.8 |
| 20260508163143 | 13 | 290 | 4.8 | 8.0 | 0.00 | 0.00 | 0.00 | 40 | 1009.8 |
| 20260508162645 | 13 | 115 | 1.6 | 16.1 | 0.00 | 0.00 | 0.00 | 41 | 1009.9 |
| 20260508162209 | 13 | 309 | 6.4 | 16.1 | 0.00 | 0.00 | 0.00 | 41 | 1010.0 |
| 20260508161633 | 13 | 298 | 8.0 | 14.5 | 0.00 | 0.00 | 0.00 | 42 | 1010.0 |
| 20260508161133 | 13 | 243 | 4.8 | 17.7 | 0.00 | 0.00 | 0.00 | 42 | 1010.2 |
| 20260508160636 | 13 | 265 | 11.3 | 17.7 | 0.00 | 0.00 | 0.00 | 43 | 1010.2 |
| 20260508160135 | 13 | 269 | 4.8 | 12.9 | 0.00 | 0.00 | 0.00 | 44 | 1010.2 |
| 20260508155639 | 13 | 236 | 0.0 | 12.9 | 0.00 | 0.00 | 0.00 | 44 | 1010.2 |
| 20260508155204 | 13 | 260 | 3.2 | 12.9 | 0.00 | 0.00 | 0.00 | 45 | 1010.2 |
| 20260508154645 | 13 | 47 | 3.2 | 12.9 | 0.00 | 0.00 | 0.00 | 44 | 1010.2 |
| 20260508154143 | 13 | 296 | 4.8 | 12.9 | 0.00 | 0.00 | 0.00 | 42 | 1010.2 |
| 20260508153647 | 13 | 255 | 1.6 | 12.9 | 0.00 | 0.00 | 0.00 | 43 | 1010.2 |
| 20260508153132 | 12 | 227 | 3.2 | 12.9 | 0.00 | 0.00 | 0.00 | 44 | 1010.2 |
| 20260508152635 | 12 | 321 | 3.2 | 12.9 | 0.00 | 0.00 | 0.00 | 43 | 1010.3 |
| 20260508152132 | 13 | 320 | 0.0 | 8.0 | 0.00 | 0.00 | 0.00 | 44 | 1010.4 |
| 20260508151635 | 12 | 116 | 1.6 | 8.0 | 0.00 | 0.00 | 0.00 | 46 | 1010.3 |
| 20260508151134 | 12 | 284 | 0.0 | 8.0 | 0.00 | 0.00 | 0.00 | 44 | 1010.4 |
| 20260508150637 | 12 | 252 | 1.6 | 6.4 | 0.00 | 0.00 | 0.00 | 46 | 1010.4 |
| 20260508150156 | 12 | 314 | 0.0 | 8.0 | 0.00 | 0.00 | 0.00 | 50 | 1010.5 |
| 20260508145637 | 12 | 311 | 3.2 | 8.0 | 0.00 | 0.00 | 0.00 | 48 | 1010.5 |
| 20260508145153 | 11 | 86 | 1.6 | 8.0 | 0.00 | 0.00 | 0.00 | 49 | 1010.5 |
| 20260508144700 | 11 | 129 | 4.8 | 8.0 | 0.00 | 0.00 | 0.00 | 50 | 1010.5 |
| 20260508144138 | 11 | 274 | 0.0 | 3.2 | 0.00 | 0.00 | 0.00 | 54 | 1010.6 |
| 20260508143640 | 11 | 276 | 0.0 | 3.2 | 0.00 | 0.00 | 0.00 | 54 | 1010.6 |
| 20260508143143 | 11 | 123 | 1.6 | 3.2 | 0.00 | 0.00 | 0.00 | 53 | 1010.7 |
| 20260508142647 | 11 | 79 | 0.0 | 3.2 | 0.00 | 0.00 | 0.00 | 55 | 1010.8 |
| 20260508142144 | 10 | 71 | 0.0 | 3.2 | 0.00 | 0.00 | 0.00 | 55 | 1010.7 |
| 20260508141648 | 10 | 69 | 0.0 | 4.8 | 0.00 | 0.00 | 0.00 | 61 | 1010.7 |
| 20260508141147 | 10 | 282 | 1.6 | 4.8 | 0.00 | 0.00 | 0.00 | 60 | 1010.7 |
| 20260508140631 | 10 | 301 | 0.0 | 6.4 | 0.00 | 0.00 | 0.00 | 61 | 1010.8 |
| 20260508140134 | 10 | 281 | 3.2 | 6.4 | 0.00 | 0.00 | 0.00 | 61 | 1010.8 |
| 20260508135636 | 10 | 324 | 1.6 | 4.8 | 0.00 | 0.00 | 0.00 | 62 | 1010.9 |
| 20260508135158 | 9 | 284 | 0.0 | 4.8 | 0.00 | 0.00 | 0.00 | 65 | 1011.0 |
| 20260508134639 | 8 | 272 | 0.0 | 4.8 | 0.00 | 0.00 | 0.00 | 68 | 1011.0 |
| 20260508134204 | 8 | 267 | 3.2 | 4.8 | 0.00 | 0.00 | 0.00 | 68 | 1011.0 |
| 20260508133646 | 8 | 230 | 0.0 | 1.6 | 0.00 | 0.00 | 0.00 | 70 | 1011.0 |
| 20260508133150 | 8 | 231 | 0.0 | 3.2 | 0.00 | 0.00 | 0.00 | 71 | 1011.0 |
| 20260508132634 | 8 | 120 | 1.6 | 3.2 | 0.00 | 0.00 | 0.00 | 74 | 1011.0 |
| 20260508132134 | 7 | 130 | 0.0 | 0.0 | 0.00 | 0.00 | 0.00 | 75 | 1011.0 |
| 20260508131638 | 7 | 130 | 0.0 | 0.0 | 0.00 | 0.00 | 0.00 | 75 | 1011.0 |
| 20260508131137 | 7 | 203 | 0.0 | 0.0 | 0.00 | 0.00 | 0.00 | 76 | 1011.0 |
| 20260508130641 | 7 | 207 | 0.0 | 0.0 | 0.00 | 0.00 | 0.00 | 77 | 1011.1 |
| 20260508130145 | 7 | 205 | 0.0 | 0.0 | 0.00 | 0.00 | 0.00 | 78 | 1011.0 |
| 20260508125646 | 6 | 141 | 0.0 | 0.0 | 0.00 | 0.00 | 0.00 | 78 | 1011.1 |
| 20260508125142 | 6 | 140 | 0.0 | 0.0 | 0.00 | 0.00 | 0.00 | 79 | 1011.0 |
| 20260508124712 | 6 | 140 | 0.0 | 0.0 | 0.00 | 0.00 | 0.00 | 80 | 1010.8 |
| 20260508124149 | 6 | 140 | 0.0 | 0.0 | 0.00 | 0.00 | 0.00 | 81 | 1010.8 |
| 20260508123633 | 6 | 259 | 0.0 | 0.0 | 0.00 | 0.00 | 0.00 | 82 | 1010.8 |
| 20260508123153 | 5 | 259 | 0.0 | 0.0 | 0.00 | 0.00 | 0.00 | 85 | 1010.7 |
| 20260508122636 | 5 | 259 | 0.0 | 0.0 | 0.00 | 0.00 | 0.00 | 87 | 1010.8 |
| 20260508122154 | 5 | 259 | 0.0 | 0.0 | 0.00 | 0.00 | 0.00 | 89 | 1010.7 |
| 20260508121637 | 4 | 259 | 0.0 | 0.0 | 0.00 | 0.00 | 0.00 | 91 | 1010.7 |
| 20260508121136 | 4 | 259 | 0.0 | 0.0 | 0.00 | 0.00 | 0.00 | 94 | 1010.7 |
| 20260508120638 | 3 | 286 | 0.0 | 0.0 | 0.00 | 0.00 | 0.00 | 94 | 1010.6 |
| 20260508120204 | 3 | 286 | 0.0 | 0.0 | 0.00 | 0.00 | 0.00 | 94 | 1010.6 |
| 20260508115647 | 3 | 287 | 0.0 | 0.0 | 0.00 | 0.00 | 0.00 | 94 | 1010.6 |
| 20260508115148 | 3 | 286 | 0.0 | 0.0 | 0.00 | 0.00 | 0.00 | 95 | 1010.4 |
| 20260508114631 | 3 | 286 | 0.0 | 0.0 | 0.00 | 0.00 | 0.00 | 94 | 1010.4 |
| 20260508114148 | 3 | 286 | 0.0 | 0.0 | 0.00 | 0.00 | 0.00 | 94 | 1010.4 |
| 20260508113650 | 3 | 286 | 0.0 | 0.0 | 0.00 | 0.00 | 0.00 | 94 | 1010.3 |
| 20260508113137 | 3 | 286 | 0.0 | 0.0 | 0.00 | 0.00 | 0.00 | 94 | 1010.3 |
| 20260508112638 | 3 | 286 | 0.0 | 0.0 | 0.00 | 0.00 | 0.00 | 94 | 1010.3 |
| 20260508112157 | 3 | 286 | 0.0 | 0.0 | 0.00 | 0.00 | 0.00 | 94 | 1010.2 |
| 20260508111706 | 3 | 286 | 0.0 | 0.0 | 0.00 | 0.00 | 0.00 | 94 | 1010.1 |
| 20260508111145 | 2 | 286 | 0.0 | 0.0 | 0.00 | 0.00 | 0.00 | 94 | 1010.1 |
| 20260508110649 | 2 | 286 | 0.0 | 0.0 | 0.00 | 0.00 | 0.00 | 94 | 1010.1 |
| 20260508110216 | 2 | 286 | 0.0 | 0.0 | 0.00 | 0.00 | 0.00 | 94 | 1010.1 |
| 20260508105656 | 2 | 286 | 0.0 | 0.0 | 0.00 | 0.00 | 0.00 | 93 | 1010.0 |
| 20260508105154 | 2 | 287 | 0.0 | 0.0 | 0.00 | 0.00 | 0.00 | 93 | 1010.0 |
| 20260508104634 | 2 | 286 | 0.0 | 0.0 | 0.00 | 0.00 | 0.00 | 93 | 1010.0 |
| 20260508104135 | 2 | 287 | 0.0 | 0.0 | 0.00 | 0.00 | 0.00 | 93 | 1009.9 |
| 20260508103635 | 2 | 286 | 0.0 | 0.0 | 0.00 | 0.00 | 0.00 | 93 | 1009.9 |
| 20260508103138 | 2 | 286 | 0.0 | 0.0 | 0.00 | 0.00 | 0.00 | 93 | 1010.0 |
| 20260508102709 | 2 | 286 | 0.0 | 0.0 | 0.00 | 0.00 | 0.00 | 92 | 1009.9 |
| 20260508102146 | 2 | 286 | 0.0 | 0.0 | 0.00 | 0.00 | 0.00 | 92 | 1009.9 |
| 20260508101630 | 3 | 286 | 0.0 | 0.0 | 0.00 | 0.00 | 0.00 | 92 | 1009.9 |
| 20260508101150 | 3 | 286 | 0.0 | 0.0 | 0.00 | 0.00 | 0.00 | 92 | 1009.9 |
| 20260508100632 | 3 | 286 | 0.0 | 0.0 | 0.00 | 0.00 | 0.00 | 92 | 1010.0 |
| 20260508100151 | 3 | 286 | 0.0 | 0.0 | 0.00 | 0.00 | 0.00 | 92 | 1010.0 |
| 20260508095652 | 3 | 286 | 0.0 | 0.0 | 0.00 | 0.00 | 0.00 | 92 | 1010.0 |
| 20260508095148 | 3 | 286 | 0.0 | 0.0 | 0.00 | 0.00 | 0.00 | 91 | 1010.0 |
| 20260508094650 | 3 | 286 | 0.0 | 0.0 | 0.00 | 0.00 | 0.00 | 91 | 1010.0 |
| 20260508094147 | 3 | 286 | 0.0 | 0.0 | 0.00 | 0.00 | 0.00 | 91 | 1010.0 |
| 20260508093631 | 3 | 286 | 0.0 | 0.0 | 0.00 | 0.00 | 0.00 | 91 | 1010.1 |
| 20260508093137 | 3 | 286 | 0.0 | 0.0 | 0.00 | 0.00 | 0.00 | 91 | 1010.1 |
| 20260508092706 | 3 | 286 | 0.0 | 0.0 | 0.00 | 0.00 | 0.00 | 91 | 1010.1 |
| 20260508092144 | 3 | 286 | 0.0 | 0.0 | 0.00 | 0.00 | 0.00 | 90 | 1010.2 |
| 20260508091650 | 3 | 286 | 0.0 | 0.0 | 0.00 | 0.00 | 0.00 | 90 | 1010.2 |
| 20260508091147 | 3 | 286 | 0.0 | 0.0 | 0.00 | 0.00 | 0.00 | 90 | 1010.2 |
| 20260508090651 | 3 | 286 | 0.0 | 0.0 | 0.00 | 0.00 | 0.00 | 89 | 1010.2 |
| 20260508090149 | 3 | 286 | 0.0 | 0.0 | 0.00 | 0.00 | 0.00 | 89 | 1010.1 |
| 20260508085633 | 3 | 286 | 0.0 | 0.0 | 0.00 | 0.00 | 0.00 | 88 | 1010.2 |
| 20260508085146 | 3 | 286 | 0.0 | 0.0 | 0.00 | 0.00 | 0.00 | 88 | 1010.1 |
| 20260508084631 | 3 | 286 | 0.0 | 0.0 | 0.00 | 0.00 | 0.00 | 88 | 1010.2 |
| 20260508084146 | 4 | 286 | 0.0 | 0.0 | 0.00 | 0.00 | 0.00 | 87 | 1010.1 |
| 20260508083631 | 4 | 286 | 0.0 | 0.0 | 0.00 | 0.00 | 0.00 | 87 | 1010.2 |
| 20260508083136 | 4 | 286 | 0.0 | 0.0 | 0.00 | 0.00 | 0.00 | 87 | 1010.2 |
| 20260508082635 | 5 | 286 | 0.0 | 0.0 | 0.00 | 0.00 | 0.00 | 86 | 1010.2 |
| 20260508082156 | 5 | 286 | 0.0 | 0.0 | 0.00 | 0.00 | 0.00 | 85 | 1010.2 |
| 20260508081639 | 5 | 286 | 0.0 | 0.0 | 0.00 | 0.00 | 0.00 | 85 | 1010.2 |
| 20260508081204 | 5 | 286 | 0.0 | 0.0 | 0.00 | 0.00 | 0.00 | 84 | 1010.2 |
| 20260508080648 | 5 | 286 | 0.0 | 0.0 | 0.00 | 0.00 | 0.00 | 83 | 1010.2 |
| 20260508080146 | 5 | 286 | 0.0 | 0.0 | 0.00 | 0.00 | 0.00 | 83 | 1010.3 |
| 20260508075650 | 5 | 286 | 0.0 | 0.0 | 0.00 | 0.00 | 0.00 | 83 | 1010.2 |
| 20260508075216 | 5 | 286 | 0.0 | 0.0 | 0.00 | 0.00 | 0.00 | 83 | 1010.2 |
| 20260508074633 | 6 | 286 | 0.0 | 0.0 | 0.00 | 0.00 | 0.00 | 83 | 1010.2 |
| 20260508074153 | 6 | 286 | 0.0 | 0.0 | 0.00 | 0.00 | 0.00 | 83 | 1010.3 |
| 20260508073649 | 6 | 286 | 0.0 | 0.0 | 0.00 | 0.00 | 0.00 | 83 | 1010.1 |
| 20260508073145 | 6 | 287 | 0.0 | 0.0 | 0.00 | 0.00 | 0.00 | 83 | 1010.3 |
| 20260508072647 | 5 | 287 | 0.0 | 0.0 | 0.00 | 0.00 | 0.00 | 83 | 1010.4 |
| 20260508072144 | 5 | 286 | 0.0 | 1.6 | 0.00 | 0.00 | 0.00 | 83 | 1010.5 |
| 20260508071646 | 5 | 286 | 0.0 | 1.6 | 0.00 | 0.00 | 0.00 | 83 | 1010.4 |
| 20260508071144 | 5 | 286 | 0.0 | 0.0 | 0.00 | 0.00 | 0.00 | 84 | 1010.4 |
| 20260508070647 | 5 | 286 | 0.0 | 0.0 | 0.00 | 0.00 | 0.00 | 86 | 1010.3 |
| 20260508070145 | 5 | 287 | 0.0 | 0.0 | 0.00 | 0.00 | 0.00 | 87 | 1010.4 |
| 20260508065643 | 5 | 287 | 0.0 | 0.0 | 0.00 | 0.00 | 0.00 | 88 | 1010.4 |
| 20260508065210 | 5 | 287 | 0.0 | 0.0 | 0.00 | 0.00 | 0.00 | 88 | 1010.3 |
| 20260508064634 | 5 | 287 | 0.0 | 0.0 | 0.00 | 0.00 | 0.00 | 88 | 1010.3 |
| 20260508064134 | 5 | 287 | 0.0 | 0.0 | 0.00 | 0.00 | 0.00 | 88 | 1010.3 |
| 20260508063636 | 5 | 287 | 0.0 | 0.0 | 0.00 | 0.00 | 0.00 | 88 | 1010.3 |
| 20260508063155 | 5 | 287 | 0.0 | 1.6 | 0.00 | 0.00 | 0.00 | 88 | 1010.3 |
| 20260508062637 | 5 | 287 | 0.0 | 1.6 | 0.00 | 0.00 | 0.00 | 88 | 1010.4 |
| 20260508062137 | 5 | 286 | 0.0 | 1.6 | 0.00 | 0.00 | 0.00 | 88 | 1010.3 |
| 20260508061640 | 5 | 294 | 0.0 | 0.0 | 0.00 | 0.00 | 0.00 | 87 | 1010.4 |
| 20260508061202 | 5 | 294 | 0.0 | 0.0 | 0.00 | 0.00 | 0.00 | 87 | 1010.4 |
| 20260508060643 | 5 | 294 | 0.0 | 0.0 | 0.00 | 0.00 | 0.00 | 87 | 1010.5 |
| 20260508060133 | 4 | 294 | 0.0 | 0.0 | 0.00 | 0.00 | 0.00 | 87 | 1010.6 |
| 20260508055634 | 4 | 294 | 0.0 | 0.0 | 0.00 | 0.00 | 0.00 | 86 | 1010.6 |
| 20260508055151 | 4 | 294 | 0.0 | 0.0 | 0.00 | 0.00 | 0.00 | 86 | 1010.6 |
| 20260508054653 | 5 | 294 | 0.0 | 0.0 | 0.00 | 0.00 | 0.00 | 86 | 1010.5 |
| 20260508054133 | 5 | 294 | 0.0 | 0.0 | 0.00 | 0.00 | 0.00 | 85 | 1010.6 |
| 20260508053633 | 5 | 294 | 0.0 | 0.0 | 0.00 | 0.00 | 0.00 | 85 | 1010.6 |
| 20260508053153 | 5 | 294 | 0.0 | 0.0 | 0.00 | 0.00 | 0.00 | 84 | 1010.6 |
| 20260508052635 | 5 | 294 | 0.0 | 0.0 | 0.00 | 0.00 | 0.00 | 83 | 1010.6 |
| 20260508052154 | 5 | 294 | 0.0 | 0.0 | 0.00 | 0.00 | 0.00 | 83 | 1010.6 |
| 20260508051639 | 5 | 294 | 0.0 | 0.0 | 0.00 | 0.00 | 0.00 | 82 | 1010.6 |
| 20260508051138 | 5 | 294 | 0.0 | 0.0 | 0.00 | 0.00 | 0.00 | 81 | 1010.7 |
| 20260508050639 | 6 | 294 | 0.0 | 0.0 | 0.00 | 0.00 | 0.00 | 81 | 1010.6 |
| 20260508050145 | 6 | 294 | 0.0 | 0.0 | 0.00 | 0.00 | 0.00 | 80 | 1010.6 |
| 20260508045649 | 6 | 294 | 0.0 | 0.0 | 0.00 | 0.00 | 0.00 | 80 | 1010.5 |
| 20260508044647 | 6 | 294 | 0.0 | 3.2 | 0.00 | 0.00 | 0.00 | 78 | 1010.7 |
| 20260508044145 | 6 | 294 | 0.0 | 3.2 | 0.00 | 0.00 | 0.00 | 77 | 1010.8 |
| 20260508043647 | 7 | 294 | 0.0 | 3.2 | 0.00 | 0.00 | 0.00 | 76 | 1010.7 |
| 20260508043211 | 7 | 73 | 0.0 | 3.2 | 0.00 | 0.00 | 0.00 | 75 | 1010.6 |
| 20260508042633 | 7 | 72 | 1.6 | 3.2 | 0.00 | 0.00 | 0.00 | 72 | 1010.7 |
| 20260508042133 | 8 | 72 | 0.0 | 9.7 | 0.00 | 0.00 | 0.00 | 68 | 1010.7 |
| 20260508041638 | 8 | 273 | 4.8 | 9.7 | 0.00 | 0.00 | 0.00 | 65 | 1010.8 |
| 20260508041136 | 8 | 110 | 0.0 | 11.3 | 0.00 | 0.00 | 0.00 | 63 | 1010.7 |
| 20260508040707 | 8 | 272 | 3.2 | 11.3 | 0.00 | 0.00 | 0.00 | 63 | 1010.7 |
| 20260508040151 | 8 | 265 | 0.0 | 3.2 | 0.00 | 0.00 | 0.00 | 63 | 1010.6 |
| 20260508035654 | 8 | 250 | 1.6 | 1.6 | 0.00 | 0.00 | 0.00 | 63 | 1010.4 |
| 20260508035153 | 8 | 233 | 0.0 | 1.6 | 0.00 | 0.00 | 0.00 | 62 | 1010.4 |
| 20260508034656 | 8 | 225 | 0.0 | 0.0 | 0.00 | 0.00 | 0.00 | 61 | 1010.3 |
| 20260508034156 | 8 | 225 | 0.0 | 0.0 | 0.00 | 0.00 | 0.00 | 61 | 1010.2 |
| 20260508033644 | 8 | 225 | 0.0 | 0.0 | 0.00 | 0.00 | 0.00 | 60 | 1010.3 |
| 20260508033149 | 8 | 226 | 0.0 | 0.0 | 0.00 | 0.00 | 0.00 | 59 | 1010.3 |
| 20260508032631 | 9 | 225 | 0.0 | 0.0 | 0.00 | 0.00 | 0.00 | 59 | 1010.4 |
| 20260508032132 | 9 | 225 | 0.0 | 1.6 | 0.00 | 0.00 | 0.00 | 59 | 1010.3 |
| 20260508031636 | 9 | 225 | 0.0 | 1.6 | 0.00 | 0.00 | 0.00 | 59 | 1010.2 |
| 20260508031133 | 9 | 238 | 0.0 | 0.0 | 0.00 | 0.00 | 0.00 | 57 | 1010.5 |
| 20260508030704 | 9 | 240 | 0.0 | 0.0 | 0.00 | 0.00 | 0.00 | 56 | 1010.7 |
| 20260508030147 | 9 | 257 | 0.0 | 0.0 | 0.00 | 0.00 | 0.00 | 56 | 1010.6 |
| 20260508025650 | 9 | 257 | 0.0 | 0.0 | 0.00 | 0.00 | 0.00 | 56 | 1010.7 |
| 20260508025146 | 9 | 257 | 0.0 | 0.0 | 0.00 | 0.00 | 0.00 | 56 | 1010.8 |
| 20260508024631 | 9 | 257 | 0.0 | 3.2 | 0.00 | 0.00 | 0.00 | 55 | 1010.8 |
| 20260508024132 | 9 | 284 | 0.0 | 3.2 | 0.00 | 0.00 | 0.00 | 55 | 1010.8 |
| 20260508023635 | 9 | 263 | 0.0 | 3.2 | 0.00 | 0.00 | 0.00 | 54 | 1010.8 |
| 20260508023140 | 9 | 253 | 1.6 | 3.2 | 0.00 | 0.00 | 0.00 | 54 | 1010.7 |
| 20260508022644 | 9 | 210 | 0.0 | 1.6 | 0.00 | 0.00 | 0.00 | 54 | 1010.7 |
| 20260508022209 | 9 | 301 | 0.0 | 0.0 | 0.00 | 0.00 | 0.00 | 53 | 1010.6 |
| 20260508021633 | 9 | 301 | 0.0 | 0.0 | 0.00 | 0.00 | 0.00 | 53 | 1010.6 |
| 20260508021133 | 9 | 301 | 0.0 | 1.6 | 0.00 | 0.00 | 0.00 | 54 | 1010.6 |
| 20260508020636 | 9 | 302 | 0.0 | 1.6 | 0.00 | 0.00 | 0.00 | 54 | 1010.7 |
| 20260508020140 | 9 | 302 | 0.0 | 0.0 | 0.00 | 0.00 | 0.00 | 54 | 1010.5 |
| 20260508015641 | 9 | 302 | 0.0 | 0.0 | 0.00 | 0.00 | 0.00 | 53 | 1010.6 |
| 20260508015140 | 9 | 302 | 0.0 | 0.0 | 0.00 | 0.00 | 0.00 | 52 | 1010.6 |
| 20260508014646 | 9 | 302 | 0.0 | 0.0 | 0.00 | 0.00 | 0.00 | 53 | 1010.6 |
| 20260508014148 | 9 | 302 | 0.0 | 0.0 | 0.00 | 0.00 | 0.00 | 53 | 1010.5 |
| 20260508013632 | 9 | 302 | 0.0 | 1.6 | 0.00 | 0.00 | 0.00 | 53 | 1010.5 |
| 20260508013217 | 10 | 302 | 0.0 | 1.6 | 0.00 | 0.00 | 0.00 | 52 | 1010.4 |
| 20260508012658 | 10 | 309 | 0.0 | 4.8 | 0.00 | 0.00 | 0.00 | 53 | 1010.3 |
| 20260508012139 | 10 | 309 | 0.0 | 4.8 | 0.00 | 0.00 | 0.00 | 51 | 1010.3 |
| 20260508011710 | 10 | 337 | 0.0 | 1.6 | 0.00 | 0.00 | 0.00 | 51 | 1010.2 |
| 20260508011146 | 10 | 271 | 0.0 | 1.6 | 0.00 | 0.00 | 0.00 | 49 | 1010.1 |
| 20260508010650 | 10 | 271 | 0.0 | 6.4 | 0.00 | 0.00 | 0.00 | 49 | 1010.1 |
| 20260508010149 | 10 | 271 | 0.0 | 8.0 | 0.00 | 0.00 | 0.00 | 48 | 1010.1 |
| 20260508005631 | 10 | 307 | 3.2 | 8.0 | 0.00 | 0.00 | 0.00 | 47 | 1010.1 |
| 20260508005153 | 10 | 259 | 3.2 | 14.5 | 0.00 | 0.00 | 0.00 | 47 | 1010.1 |
| 20260508004634 | 10 | 241 | 6.4 | 14.5 | 0.00 | 0.00 | 0.00 | 47 | 1010.1 |
| 20260508004134 | 10 | 263 | 4.8 | 11.3 | 0.00 | 0.00 | 0.00 | 46 | 1010.1 |
| 20260508003635 | 10 | 316 | 0.0 | 6.4 | 0.00 | 0.00 | 0.00 | 47 | 1010.1 |
| 20260508003135 | 10 | 250 | 1.6 | 3.2 | 0.00 | 0.00 | 0.00 | 46 | 1010.2 |
| 20260508002638 | 10 | 272 | 1.6 | 3.2 | 0.00 | 0.00 | 0.00 | 45 | 1010.1 |
| 20260508002157 | 11 | 245 | 1.6 | 3.2 | 0.00 | 0.00 | 0.00 | 44 | 1010.0 |
| 20260508001641 | 11 | 244 | 0.0 | 6.4 | 0.00 | 0.00 | 0.00 | 44 | 1009.9 |
| 20260508001207 | 11 | 259 | 3.2 | 11.3 | 0.00 | 0.00 | 0.00 | 44 | 1009.9 |